Change the Weather History Date:

Saturday, January 4, 2014

  Actual Average Record
Temperature  
Mean Temperature 13 °F 30 °F  
Max Temperature 28 °F 38 °F 61 °F (1950)
Min Temperature -3 °F 21 °F -9 °F (1981)
Degree Days  
Heating Degree Days 52 35  
Month to date heating degree days 198 140  
Since 1 July heating degree days 2277 2167  
Cooling Degree Days 0 0  
Month to date cooling degree days 0 0  
Year to date cooling degree days 0 0  
Moisture  
Dew Point 4 °F    
Average Humidity 59    
Maximum Humidity 81    
Minimum Humidity 36    
Precipitation  
Precipitation 0.00 in 0.13 in 2.90 in (1982)
Month to date precipitation 0.29 0.49  
Year to date precipitation 0.29 0.49  
Snow  
Snow 0.00 in 0.20 in 5.70 in (1988)
Month to date snowfall 7.2 1.1  
Since 1 July snowfall 14.3 11.3  
Snow Depth 6.00 in    
Sea Level Pressure  
Sea Level Pressure 30.42 in    
Wind  
Wind Speed 5 mph (SW)    
Max Wind Speed 21 mph    
Max Gust Speed 28 mph    
Visibility 10 miles    
Events      
T = Trace of Precipitation, MM = Missing Value Source: NWS Daily Summary

Daily Weather History Graph

Daily Weather History Graph

Search for Another Location

Airport or City:

Trip Planner

Search our weather history database for the weather conditions in past years. The results will help you decide how hot, cold, wet, or windy it might be!

Date:

Astronomy

Jan. 04, 2014 Rise Set
Actual Time 7:13 AM EST 4:28 PM EST
Civil Twilight 6:41 AM EST 4:59 PM EST
Nautical Twilight 6:06 AM EST 5:34 PM EST
Astronomical Twilight 5:33 AM EST 6:08 PM EST
Moon 9:13 AM EST (1/4) 8:48 PM EST (1/4)
Length of Visible Light 10h 18m
Length of Day
9h 15m
Waxing Crescent, 15% of the Moon is Illuminated
Jan 4
Waxing Crescent
Jan 7
First Quarter
Jan 15
Full
Jan 24
Last Quarter
Jan 30
New

Hourly Weather History & Observations

Time (EST) Temp. Windchill Dew Point Humidity Pressure Visibility Wind Dir Wind Speed Gust Speed Precip Events Conditions
12:51 AM 1.9 °F -9.2 °F -9.0 °F 60% 30.44 in 10.0 mi WNW 5.8 mph - N/A   Clear
1:51 AM 1.0 °F -6.7 °F -8.0 °F 66% 30.46 in 10.0 mi West 3.5 mph - N/A   Clear
2:51 AM -0.0 °F - -7.1 °F 72% 30.47 in 10.0 mi Calm Calm - N/A   Clear
3:51 AM -2.0 °F -10.1 °F -8.0 °F 76% 30.47 in 10.0 mi South 3.5 mph - N/A   Clear
4:51 AM -0.9 °F - -7.1 °F 75% 30.48 in 10.0 mi Calm Calm - N/A   Clear
5:51 AM -0.0 °F -7.9 °F -8.0 °F 69% 30.48 in 10.0 mi West 3.5 mph - N/A   Clear
6:51 AM -0.9 °F - -7.1 °F 75% 30.50 in 10.0 mi Calm Calm - N/A   Clear
7:51 AM 1.0 °F -10.3 °F -9.0 °F 63% 30.53 in 10.0 mi SW 5.8 mph - N/A   Clear
8:51 AM 3.9 °F - -7.1 °F 60% 30.53 in 10.0 mi Calm Calm - N/A   Scattered Clouds
9:51 AM 9.0 °F - -6.0 °F 51% 30.54 in 10.0 mi Calm Calm - N/A   Partly Cloudy
10:51 AM 16.0 °F 5.3 °F -7.1 °F 36% 30.50 in 10.0 mi WSW 8.1 mph - N/A   Partly Cloudy
11:51 AM 19.9 °F 7.9 °F 1.9 °F 46% 30.47 in 10.0 mi SW 11.5 mph - N/A   Partly Cloudy
12:51 PM 23.0 °F 11.1 °F 5.0 °F 46% 30.43 in 10.0 mi SW 12.7 mph - N/A   Partly Cloudy
1:51 PM 25.0 °F 14.2 °F 12.0 °F 58% 30.40 in 10.0 mi SSW 11.5 mph - N/A   Partly Cloudy
2:51 PM 27.0 °F 15.2 °F 12.9 °F 56% 30.38 in 10.0 mi SSW 15.0 mph 25.3 mph N/A   Scattered Clouds
3:51 PM 28.0 °F 18.6 °F 16.0 °F 61% 30.38 in 10.0 mi SW 10.4 mph 25.3 mph N/A   Scattered Clouds
4:51 PM 25.0 °F 15.5 °F 17.1 °F 72% 30.35 in 10.0 mi SSW 9.2 mph - N/A   Scattered Clouds
5:51 PM 26.1 °F 19.4 °F 17.1 °F 69% 30.35 in 10.0 mi SSW 5.8 mph - N/A   Scattered Clouds
6:51 PM 24.1 °F 17.0 °F 17.1 °F 75% 30.34 in 10.0 mi SW 5.8 mph - N/A   Clear
7:51 PM 25.0 °F 19.3 °F 17.1 °F 72% 30.34 in 10.0 mi SW 4.6 mph - N/A   Clear
8:51 PM 25.0 °F 18.1 °F 17.1 °F 72% 30.33 in 10.0 mi SW 5.8 mph - N/A   Clear
9:51 PM 24.1 °F 18.2 °F 18.0 °F 77% 30.32 in 10.0 mi SW 4.6 mph - N/A   Clear
10:51 PM 24.1 °F 19.7 °F 19.0 °F 81% 30.32 in 10.0 mi West 3.5 mph - N/A   Partly Cloudy
11:51 PM 21.9 °F - 18.0 °F 85% 30.31 in 10.0 mi Calm Calm - N/A   Scattered Clouds